www.pogodaiklimat.ru

Погода и климат >> Архив погоды >> Индия >> Махараштра >> Пуна


ПОГОДА в Пуне

  • Прогноз погоды в Пуне
  • Монитор погоды в Пуне

АРХИВ ПОГОДЫ в Пуне

Время (UTC), дата Ветер
(напр.,м/с)
 
Видим.   Явления Облачность Т
(С)
Тd
(С)
f
(%)
Тe
(С)
Тes
(С)
Комфортность P
(гПа)
Po
(гПа)
Тmin
(С)
Tmax
(С)
R
(мм)
R24
(мм)
S
(см)
15 15.09 штиль 0 4000 м 6/3 800 м
[Sc Ac trans]
+22.8 +21.0 90 +30 +30 очень
душно
1009.3 947.0 0.2
18 15.09 штиль 0 4000 м 9/4 800 м
[Sc Ac trans]
+22.8 +21.3 91 +30 +30 очень
душно
1009.8 947.5 0.2
21 15.09 штиль 0 4000 м 9/4 800 м
[Sc Ac trans]
+22.6 +21.1 91 +30 +30 очень
душно
1008.1 945.9 0.2
00 16.09 З 1 4000 м 6/3 800 м
[Sc Ac trans]
+22.8 +21.6 93 +30 +30 очень
душно
1008.1 945.9 0.2
03 16.09 З 1 10 км 9/9 660 м
[Frnb]
+23.8 +21.5 87 +30 +31 очень
душно
1009.7 947.6 +22.0 0.2
06 16.09 З 1 10 км {морось} 9/6 660 м
[Frnb Ac trans]
+25.0 +21.5 81 +32 +37 очень
душно
1009.6 947.7 0.1
09 16.09 З 1 10 км 9/5 660 м
[Frnb Ac trans]
+25.6 +21.8 80 +33 +38 очень
душно
1006.9 945.3 0.1
12 16.09 З 1 10 км слаб. морось {дождь} 9/6 660 м
[Frnb Ac trans]
+24.4 +21.6 84 +31 +31 очень
душно
1006.5 944.8 +26.7 0.7
15 16.09 З 1 4000 м 9/8 660 м
[Frnb Ac trans]
+23.2 +21.1 88 +31 +31 очень
душно
1008.2 946.2 0.7
18 16.09 штиль 0 4000 м 6/4 660 м
[Frnb Ac trans]
+22.4 +20.6 90 +29 +29 очень
душно
1008.6 946.4 0.7
21 16.09 З 1 4000 м 9/6 660 м
[Frnb Ac trans]
+22.8 +21.3 91 +30 +30 очень
душно
1007.4 945.2 0.7
00 17.09 штиль 0 4000 м 8/6 660 м
[Frnb Ac trans]
+22.2 +21.3 95 +29 +29 очень
душно
1007.3 945.1 0.7
03 17.09 З 1 10 км 9/5 660 м
[Frnb Ac trans]
+24.0 +22.0 89 +31 +33 очень
душно
1008.0 946.0 +21.4 0.7
06 17.09 З 1 10 км 9/9 660 м
[Frnb]
+24.8 +21.9 84 +32 +34 очень
душно
1008.6 946.8
09 17.09 З 1 10 км 8/6 660 м
[Frnb Ac trans]
+25.8 +22.6 83 +34 +39 очень
душно
1006.1 944.7
12 17.09 З 1 4000 м слаб. дождь {морось} 10/6 660 м
[Frnb As op]
+23.4 +22.2 93 +32 +32 очень
душно
1006.3 944.4 +27.0 2
15 17.09 штиль 0 4000 м {морось} 6/6 660 м
[Frnb Ac trans]
+22.4 +21.5 95 +30 +30 очень
душно
1008.2 946.0 2
18 17.09 штиль 0 4000 м {морось} 6/3 800 м
[Sc Ac trans]
+22.2 +21.3 95 +29 +29 очень
душно
1008.0 945.8 2
21 17.09 штиль 0 4000 м 5/5 660 м
[Frnb]
+22.0 +21.4 96 +29 +29 очень
душно
1007.0 944.7 2
00 18.09 штиль 0 4000 м 8/6 660 м
[Frnb Ac trans]
+23.0 +22.1 95 +31 +31 очень
душно
1006.9 944.8 2
03 18.09 штиль 0 4000 м слаб. морось 10/8 660 м
[Frnb As op]
+23.6 +22.1 91 +30 +31 очень
душно
1008.5 946.5 +21.4 2
06 18.09 З 1 10 км {дождь, морось} 9/9 660 м
[Frnb]
+26.6 +23.2 82 +36 +38 очень
душно
1007.8 946.5 0.7
09 18.09 штиль 0 10 км слаб. дождь 10/10 660 м
[Frnb]
+30.6 +22.1 61 +40 +48 очень
душно
1003.5 986.2 1
12 18.09 штиль 0 4000 м гроза без осадков 10/10 800 м
[Cb cap]
+24.8 +24.2 96 +34 +34 очень
душно
1005.2 943.6 +29.4 4
15 18.09 штиль 0 4000 м в посл. час дождь {гроза} 9/8 800 м
[Cu Sc Ac trans]
+24.2 +23.6 96 +33 +33 очень
душно
1007.5 945.7 6
18 18.09 штиль 0 4000 м слаб. морось {гроза, дождь} 9/9 660 м
[Frnb]
+23.0 +22.4 96 +31 +31 очень
душно
1007.7 945.5 8
21 18.09 штиль 0 4000 м {морось} 8/5 800 м
[Sc Ac trans]
+23.2 +22.3 95 +32 +32 очень
душно
1006.3 944.4 8
00 19.09 штиль 0 4000 м слаб. дождь {морось} 10/6 660 м
[Frnb As op]
+22.8 +22.2 96 +31 +31 очень
душно
1006.1 944.0 25
03 19.09 штиль 0 4000 м слаб. морось {дождь} 10/8 800 м
[Cu Sc Ac As]
+23.0 +23.0 100 +32 +32 очень
душно
1007.9 945.8 +21.9 26
06 19.09 штиль 0 10 км 8/6 800 м
[Cu Sc Ac trans]
+27.4 +23.1 77 +37 +44 очень
душно
1006.3 945.3
09 19.09 штиль 0 4000 м гроза, ливневой дождь 10/10 660 м
[Cb cap]
+25.8 +24.1 90 +36 +36 очень
душно
1004.3 943.0 4
12 19.09 З 1 10 км в посл. час морось {гроза, дождь} 9/6 660 м
[Frnb Ac trans]
+25.0 +22.4 86 +33 +33 очень
душно
1004.1 942.6 +28.6 5
15 19.09 штиль 0 4000 м 6/4 800 м
[Sc Ac trans]
+23.8 +22.9 95 +32 +32 очень
душно
1006.6 944.7 5
18 19.09 штиль 0 4000 м 9/5 800 м
[Sc Ac trans]
+23.4 +23.1 98 +33 +33 очень
душно
1007.1 945.2 5
21 19.09 штиль 0 4000 м 9/6 800 м
[Sc Ac trans]
+23.0 +22.4 96 +31 +31 очень
душно
1005.3 943.3 5
00 20.09 штиль 0 4000 м 8/5 800 м
[Sc Ac trans]
+23.0 +22.4 96 +31 +31 очень
душно
1005.8 943.8 5
03 20.09 штиль 0 4000 м слаб. дождь {туман} 9/5 800 м
[Sc Ac trans]
+24.2 +22.8 92 +32 +34 очень
душно
1008.0 946.2 +22.1 5
06 20.09 З 2 10 км {дождь, морось} 9/8 660 м
[Frnb Ac trans]
+26.2 +21.6 76 +34 +36 очень
душно
1006.9 945.6 0.6
09 20.09 З 2 10 км 5/4 800 м
[Cu Sc Ac trans]
+27.0 +23.6 82 +37 +46 очень
душно
1004.9 943.7 0.6
12 20.09 штиль 0 10 км 6/4 800 м
[Cu Sc Ac trans Ci fib]
+26.2 +20.9 73 +33 +34 очень
душно
1004.4 943.2 +28.0 0.6
15 20.09 штиль 0 4000 м 6/4 800 м
[Sc Ac trans]
+23.8 +20.2 80 +29 +29 душно 1007.2 945.2 0.6
18 20.09 штиль 0 4000 м 6/4 800 м
[Sc Ac trans]
+20.8 +19.6 93 +25 +25 комфорт 1008.6 946.0 0.6
21 20.09 штиль 0 4000 м 6/4 800 м
[Sc Ac trans]
+20.6 +19.7 95 +25 +25 комфорт 1006.5 944.0 0.6
00 21.09 штиль 0 4000 м 8/5 800 м
[Sc Ac trans]
+21.0 +20.4 96 +26 +26 душно 1006.5 944.0 0.6
03 21.09 штиль 0 10 км 6/4 800 м
[Sc Ac trans]
+24.8 +21.0 79 +31 +34 очень
душно
1007.4 945.6 +20.0 0.6
06 21.09 штиль 0 10 км 5/4 800 м
[Cu Sc Ac trans]
+28.2 +21.6 67 +36 +49 очень
душно
1005.7 944.9
09 21.09 З 1 10 км 8/6 800 м
[Cu Sc Ac trans]
+29.4 +21.9 64 +38 +43 очень
душно
1003.4 942.9
12 21.09 З 1 10 км 8/5 800 м
[Cu Sc Ac trans]
+27.2 +21.4 71 +35 +35 очень
душно
1003.6 942.7 +30.7
15 21.09 штиль 0 4000 м {дождь, морось} 6/5 800 м
[Sc Ac trans]
+23.8 +22.3 91 +31 +31 очень
душно
1007.0 945.1 2
18 21.09 штиль 0 4000 м {дождь, морось} 4/4 800 м
[Sc]
+23.4 +20.7 85 +31 +31 очень
душно
1007.8 945.8 2
21 21.09 штиль 0 4000 м 6/6 800 м
[Sc]
+23.0 +22.1 95 +31 +31 очень
душно
1006.7 944.6 2
00 22.09 штиль 0 4000 м 4/4 800 м
[Sc]
+21.2 +20.6 96 +26 +26 душно 1007.1 944.8 2
03 22.09 штиль 0 4000 м мгла {туман} 5/3 800 м
[Cu Sc Ci fib]
+25.2 +21.7 81 +32 +36 очень
душно
1008.1 946.5 +20.5 2
06 22.09 штиль 0 10 км 8/8 800 м
[Cu Sc]
+28.2 +20.6 63 +35 +40 очень
душно
1007.4 946.5
09 22.09 З 1 10 км 6/6 800 м
[Cu Sc]
+30.8 +21.9 59 +39 +47 очень
душно
1004.8 944.4

 

Местоположение метеостанции Пуна (Махараштра, Индия): широта 18.53 долгота 73.85 высота над уровнем моря 559 м.

В архиве по умолчанию представлена погода в Пуне за последнюю неделю. Архивные данные за месяц целиком и за предыдущие месяцы, начиная с января 2011 года, Вы можете получить, выбрав интересующий диапазон дат из раскрывающегося списка и нажав кнопку "Ввод!".


*Определитесь, кто Вы:
робот инопланетянин человек

Внимание! Время в таблицах - всемирное. Для получения местного времени необходимо прибавить поправку, которая равна 5.5 ч.

Смотрите также архив погоды в соседних городах и на ближайших метеорологических станциях:

Погода в Байре (Махараштра, Индия) (48 км)
Погода в Махабалешваре (Махараштра, Индия) (69 км)
Погода в Матеране (Махараштра, Индия) (78 км)
Погода в Алибаге (Махараштра, Индия) (104 км)
Погода в Харнае (Махараштра, Индия) (112 км)
Погода в Сатаре (Махараштра, Индия) (114 км)
Погода в Мумбай Колаба (Махараштра, Индия) (116 км)
Погода в Ахмеднагаре (Махараштра, Индия) (117 км)
Погода в Мумбаи (Махараштра, Индия) (124 км)
Погода в Джере (Махараштра, Индия) (141 км)

Пояснения к столбцам:

Ветер - указаны скорость ветра в м/с - средняя за 10 мин, порывы в срок и между сроками (в фигурных скобках) и направление, откуда дует ветер: С - северный, СВ - северо-восточный, В - восточный, ЮВ - юго-восточный, Ю - южный, ЮЗ - юго-западный, З - западный, СЗ - северо-западный.
Видимость - горизонтальная дальность видимости в метрах или километрах. При видимости от 1 до 10 км при отсутствии осадков обычно наблюдается дымка, при ухудшении видимости до 1 км и менее - туман. В сухую погоду видимость может ухудшаться дымом, пылью или мглою.
Явления - указаны атмосферные явления, наблюдавшиеся в срок или в последний час перед сроком; фигурными скобками обозначены явления, наблюдавшиеся между сроками (за 1-3 часа до срока); квадратными скобками обозначены град или гололедные отложения с указанием их диаметра в мм.
Облачность - указаны через наклонную черту общая и нижняя облачность в баллах и высота нижней границы облаков в метрах; квадратными скобками обозначены формы облаков: Ci - перистые, Cs - перисто-слоистые, Cc - перисто-кучевые, Ac - высококучевые, As - высокослоистые, Sc - слоисто-кучевые, Ns - слоисто-дождевые, Cu - кучевые, Cb - кучево-дождевые. Подробнее классификацию облаков см. в Атласе облаков (PDF).
T - Температура воздуха - температура, измеренная на высоте 2 м над землей.
Td - Температура точки росы - температура, при понижении до которой содержащийся в воздухе водяной пар достигнет насыщения.
f - Относительная влажность воздуха - влажноcть воздуха, измеренная на высоте 2 м над землей.
Te - Эффективная температура - температура, которую ощущает одетый по сезону человек в тени. Характеристика душности погоды. При расчете учитывается влияние влажности воздуха и скорости ветра на теплоощущения человека.
Tes - Эффективная температура на солнце - температура, которую ощущает человек, с поправкой на солнечный нагрев. Характеристика знойности погоды. Зависит от высоты солнца над горизонтом, облачности и скорости ветра. Ночью, в пасмурную погоду, а также при ветре 12 м/с и более поправка равна нулю.
P - Атмосферное давление - приведенное к уровню моря атмосферное давление.
Po - Атмосферное давление - измеренное на уровне метеостанции атмосферное давление.
Tmin - Минимальная температура - минимум температуры воздуха на высоте 2 м над землей.
Tmax - Максимальная температура - максимум температуры воздуха на высоте 2 м над землей.
R - Количество осадков - Количество выпавших осадков за период времени, мм. При наведении курсора мыши на число - период времени, за который выпало указанное количество осадков.
R24 - Количество осадков - Количество выпавших осадков за 24 часа, мм.
S - Снежный покров - Высота снежного покрова, см. При наведении курсора мыши на число - состояние снежного покрова и степень покрытия местности в баллах.